TimeEDT,TemperatureF,Dew PointF,Humidity,Sea Level PressureIn,VisibilityMPH,Wind Direction,Wind SpeedMPH,Gust SpeedMPH,PrecipitationIn,Events,Conditions,WindDirDegrees,DateUTC
12:53 AM,71.1,59.0,66,30.12,10.0,Calm,Calm,-,N/A,,Clear,0,2013-05-31 04:53:00
1:53 AM,71.1,59.0,66,30.12,10.0,Calm,Calm,-,N/A,,Clear,0,2013-05-31 05:53:00
2:53 AM,69.1,59.0,70,30.11,10.0,Calm,Calm,-,N/A,,Clear,0,2013-05-31 06:53:00
3:53 AM,70.0,57.9,65,30.09,10.0,SSE,4.6,-,N/A,,Clear,150,2013-05-31 07:53:00
4:53 AM,69.1,57.0,65,30.09,10.0,SE,4.6,-,N/A,,Clear,140,2013-05-31 08:53:00
5:53 AM,68.0,57.0,68,30.10,10.0,SE,4.6,-,N/A,,Clear,140,2013-05-31 09:53:00
6:53 AM,66.9,57.0,70,30.11,10.0,Calm,Calm,-,N/A,,Clear,0,2013-05-31 10:53:00
7:53 AM,70.0,57.9,65,30.12,10.0,SSE,3.5,-,N/A,,Clear,160,2013-05-31 11:53:00
8:53 AM,72.0,59.0,64,30.13,10.0,Calm,Calm,-,N/A,,Clear,0,2013-05-31 12:53:00
9:53 AM,73.9,61.0,64,30.13,10.0,Calm,Calm,-,N/A,,Partly Cloudy,0,2013-05-31 13:53:00
10:53 AM,77.0,61.0,58,30.12,10.0,SSE,4.6,-,N/A,,Clear,150,2013-05-31 14:53:00
11:53 AM,80.1,62.1,54,30.12,10.0,Variable,6.9,-,N/A,,Partly Cloudy,0,2013-05-31 15:53:00
12:53 PM,82.0,63.0,52,30.10,10.0,Variable,3.5,-,N/A,,Mostly Cloudy,0,2013-05-31 16:53:00
1:53 PM,82.9,60.1,46,30.07,10.0,South,8.1,-,N/A,,Clear,180,2013-05-31 17:53:00
2:53 PM,84.0,61.0,46,30.05,10.0,Variable,5.8,-,N/A,,Partly Cloudy,0,2013-05-31 18:53:00
3:53 PM,84.9,60.1,43,30.03,10.0,Variable,6.9,-,N/A,,Clear,0,2013-05-31 19:53:00
4:53 PM,84.9,62.1,46,30.02,10.0,Variable,3.5,-,N/A,,Scattered Clouds,0,2013-05-31 20:53:00
5:53 PM,82.0,61.0,49,30.02,10.0,Variable,3.5,-,N/A,,Mostly Cloudy,0,2013-05-31 21:53:00
6:53 PM,79.0,60.1,52,30.03,10.0,Calm,Calm,-,N/A,,Mostly Cloudy,0,2013-05-31 22:53:00
7:53 PM,79.0,60.1,52,30.03,10.0,Calm,Calm,-,N/A,,Scattered Clouds,0,2013-05-31 23:53:00
8:53 PM,77.0,57.9,52,30.02,10.0,Calm,Calm,-,N/A,,Partly Cloudy,0,2013-06-01 00:53:00
9:53 PM,75.9,59.0,56,30.01,10.0,Variable,3.5,-,N/A,,Clear,0,2013-06-01 01:53:00
10:53 PM,75.0,59.0,57,30.03,10.0,Calm,Calm,-,N/A,,Clear,0,2013-06-01 02:53:00
11:53 PM,73.0,59.0,61,30.01,10.0,Calm,Calm,-,N/A,,Clear,0,2013-06-01 03:53:00